• In Italy
  • List of Countries
  • For 7 days
  • Water Temperature
  • Satellite Maps
  • Weather Map
  • Weather Widgets
  • user-avatar
    Login

    Hourly Weather Ben-Gurion

    Today, 20 November, Monday

    Time Temperature Precipitation Wind Pressure Humidity
    00:00 +18°C° 0 mm 0 mps 757 mmHg 78%
    01:00 +18°C° 0 mm 0 mps 757 mmHg 79%
    02:00 +20°C° 0 mm 1 mps 756 mmHg 79%
    03:00 +19°C° 0 mm 1 mps 756 mmHg 80%
    04:00 +19°C° 0 mm 1 mps 756 mmHg 80%
    05:00 +19°C° 0 mm 1 mps 756 mmHg 81%
    06:00 +20°C° 0 mm 1 mps 756 mmHg 76%
    07:00 +20°C° 0 mm 1 mps 756 mmHg 72%
    08:00 +21°C° 0 mm 1 mps 756 mmHg 67%
    09:00 +21°C° 0 mm 2 mps 756 mmHg 62%
    10:00 +23°C° 0 mm 2 mps 756 mmHg 56%
    11:00 +24°C° 0 mm 2 mps 756 mmHg 50%
    12:00 +24°C° 0 mm 3 mps 756 mmHg 49%
    13:00 +23°C° 0 mm 4 mps 755 mmHg 47%
    14:00 +23°C° 0 mm 5 mps 755 mmHg 46%
    15:00 +23°C° 0.1 mm 5 mps 755 mmHg 51%
    16:00 +22°C° 0.1 mm 4 mps 755 mmHg 56%
    17:00 +21°C° 0.1 mm 4 mps 755 mmHg 61%
    18:00 +20°C° 0.3 mm 4 mps 755 mmHg 63%
    19:00 +20°C° 0.3 mm 3 mps 755 mmHg 65%
    20:00 +20°C° 0.3 mm 3 mps 755 mmHg 67%
    21:00 +19°C° 0.3 mm 3 mps 755 mmHg 68%
    22:00 +19°C° 0.3 mm 3 mps 755 mmHg 68%
    23:00 +19°C° 0.3 mm 4 mps 755 mmHg 68%

    Tomorrow, 21 November, Tuesday

    Time Temperature Precipitation Wind Pressure Humidity
    00:00 +19°C° 0.3 mm 4 mps 755 mmHg 68%
    01:00 +19°C° 0.3 mm 5 mps 755 mmHg 69%
    02:00 +17°C° 0.3 mm 5 mps 755 mmHg 69%
    03:00 +17°C° 0.6 mm 6 mps 755 mmHg 69%
    04:00 +17°C° 0.6 mm 6 mps 754 mmHg 69%
    05:00 +17°C° 0.6 mm 7 mps 754 mmHg 69%
    06:00 +18°C° 0.8 mm 7 mps 754 mmHg 69%
    07:00 +18°C° 0.8 mm 8 mps 755 mmHg 69%
    08:00 +18°C° 0.8 mm 8 mps 755 mmHg 70%
    09:00 +18°C° 0.9 mm 8 mps 755 mmHg 69%
    10:00 +20°C° 0.9 mm 8 mps 755 mmHg 69%
    11:00 +19°C° 0.9 mm 9 mps 755 mmHg 69%
    12:00 +19°C° 0.4 mm 9 mps 755 mmHg 65%
    13:00 +19°C° 0.4 mm 9 mps 755 mmHg 62%
    14:00 +19°C° 0.4 mm 9 mps 755 mmHg 59%
    15:00 +18°C° 0.1 mm 9 mps 755 mmHg 59%
    16:00 +18°C° 0.1 mm 8 mps 755 mmHg 60%
    17:00 +17°C° 0.1 mm 8 mps 755 mmHg 61%
    18:00 +17°C° 0.1 mm 8 mps 756 mmHg 61%
    19:00 +17°C° 0.1 mm 7 mps 756 mmHg 62%
    20:00 +17°C° 0.1 mm 7 mps 756 mmHg 62%
    21:00 +16°C° 0 mm 7 mps 756 mmHg 62%
    22:00 +16°C° 0 mm 7 mps 756 mmHg 62%
    23:00 +16°C° 0 mm 7 mps 756 mmHg 62%

    Day after tomorrow, 22 November, Wednesday

    Time Temperature Precipitation Wind Pressure Humidity
    00:00 +16°C° 0.1 mm 7 mps 756 mmHg 63%
    01:00 +15°C° 0.1 mm 6 mps 756 mmHg 64%
    02:00 +15°C° 0.1 mm 6 mps 757 mmHg 65%
    03:00 +15°C° 0.1 mm 6 mps 756 mmHg 65%
    04:00 +15°C° 0.1 mm 6 mps 756 mmHg 66%
    05:00 +15°C° 0.1 mm 5 mps 756 mmHg 66%
    06:00 +16°C° 0.1 mm 5 mps 757 mmHg 64%
    07:00 +16°C° 0.1 mm 5 mps 757 mmHg 62%
    08:00 +16°C° 0.1 mm 5 mps 757 mmHg 61%
    09:00 +17°C° 0.1 mm 5 mps 757 mmHg 58%
    10:00 +17°C° 0.1 mm 5 mps 757 mmHg 56%
    11:00 +19°C° 0.1 mm 5 mps 758 mmHg 54%
    12:00 +19°C° 0.1 mm 5 mps 757 mmHg 54%
    13:00 +19°C° 0.1 mm 5 mps 757 mmHg 54%
    14:00 +19°C° 0.1 mm 5 mps 757 mmHg 54%
    15:00 +19°C° 0.3 mm 4 mps 757 mmHg 57%
    16:00 +18°C° 0.3 mm 4 mps 757 mmHg 60%
    17:00 +18°C° 0.3 mm 3 mps 757 mmHg 63%
    18:00 +17°C° 0.2 mm 3 mps 758 mmHg 64%
    19:00 +17°C° 0.2 mm 2 mps 758 mmHg 66%
    20:00 +17°C° 0.2 mm 2 mps 758 mmHg 67%
    21:00 +17°C° 0.1 mm 2 mps 759 mmHg 67%
    22:00 +17°C° 0.1 mm 2 mps 759 mmHg 68%
    23:00 +16°C° 0.1 mm 1 mps 759 mmHg 68%

    23 November, Thursday

    Time Temperature Precipitation Wind Pressure Humidity
    00:00 +16°C° 0 mm 1 mps 759 mmHg 68%
    01:00 +16°C° 0 mm 1 mps 759 mmHg 69%
    02:00 +15°C° 0 mm 1 mps 758 mmHg 69%
    03:00 +15°C° 0 mm 2 mps 758 mmHg 70%
    04:00 +15°C° 0 mm 2 mps 759 mmHg 70%
    05:00 +15°C° 0 mm 2 mps 759 mmHg 71%
    06:00 +15°C° 0 mm 2 mps 759 mmHg 69%
    07:00 +16°C° 0 mm 2 mps 759 mmHg 66%
    08:00 +16°C° 0 mm 2 mps 760 mmHg 64%
    09:00 +17°C° 0 mm 2 mps 760 mmHg 59%
    10:00 +19°C° 0 mm 1 mps 760 mmHg 54%
    11:00 +18°C° 0 mm 0 mps 759 mmHg 49%
    12:00 +20°C° 0 mm 1 mps 759 mmHg 47%
    13:00 +20°C° 0 mm 1 mps 759 mmHg 46%
    14:00 +19°C° 0 mm 2 mps 758 mmHg 45%
    15:00 +19°C° 0 mm 2 mps 758 mmHg 46%
    16:00 +19°C° 0 mm 2 mps 758 mmHg 47%
    17:00 +18°C° 0 mm 2 mps 758 mmHg 49%
    18:00 +18°C° 0 mm 2 mps 759 mmHg 50%
    19:00 +18°C° 0 mm 1 mps 759 mmHg 52%
    20:00 +18°C° 0 mm 1 mps 760 mmHg 54%
    21:00 +18°C° 0 mm 1 mps 760 mmHg 55%
    22:00 +16°C° 0 mm 1 mps 760 mmHg 56%
    23:00 +16°C° 0 mm 1 mps 760 mmHg 57%

    24 November, Friday

    Time Temperature Precipitation Wind Pressure Humidity
    00:00 +16°C° 0 mm 1 mps 760 mmHg 58%
    01:00 +15°C° 0 mm 1 mps 759 mmHg 58%
    02:00 +15°C° 0 mm 1 mps 759 mmHg 59%
    03:00 +15°C° 0 mm 2 mps 759 mmHg 60%
    04:00 +15°C° 0 mm 2 mps 759 mmHg 61%
    05:00 +14°C° 0 mm 2 mps 759 mmHg 62%
    06:00 +15°C° 0 mm 2 mps 760 mmHg 59%
    07:00 +16°C° 0 mm 2 mps 760 mmHg 56%
    08:00 +17°C° 0 mm 2 mps 760 mmHg 53%
    09:00 +18°C° 0 mm 2 mps 760 mmHg 50%
    10:00 +20°C° 0 mm 1 mps 760 mmHg 47%
    11:00 +20°C° 0 mm 1 mps 760 mmHg 44%
    12:00 +21°C° 0 mm 1 mps 760 mmHg 43%
    13:00 +21°C° 0 mm 1 mps 759 mmHg 43%
    14:00 +21°C° 0 mm 2 mps 759 mmHg 42%
    15:00 +20°C° 0 mm 2 mps 759 mmHg 45%
    16:00 +20°C° 0 mm 2 mps 759 mmHg 48%
    17:00 +19°C° 0 mm 2 mps 759 mmHg 51%
    18:00 +20°C° 0 mm 1 mps 760 mmHg 53%
    19:00 +19°C° 0 mm 1 mps 760 mmHg 56%
    20:00 +19°C° 0 mm 1 mps 760 mmHg 58%
    21:00 +18°C° 0 mm 1 mps 760 mmHg 59%
    22:00 +17°C° 0 mm 2 mps 760 mmHg 60%
    23:00 +17°C° 0 mm 2 mps 760 mmHg 61%

    25 November, Saturday

    Time Temperature Precipitation Wind Pressure Humidity
    00:00 +16°C° 0 mm 2 mps 760 mmHg 61%
    01:00 +16°C° 0 mm 2 mps 760 mmHg 61%
    02:00 +16°C° 0 mm 2 mps 760 mmHg 61%
    03:00 +16°C° 0 mm 2 mps 760 mmHg 61%
    04:00 +16°C° 0 mm 2 mps 760 mmHg 61%
    05:00 +14°C° 0 mm 3 mps 760 mmHg 60%
    06:00 +16°C° 0 mm 3 mps 760 mmHg 56%
    07:00 +17°C° 0 mm 3 mps 760 mmHg 52%
    08:00 +18°C° 0 mm 3 mps 761 mmHg 48%
    09:00 +19°C° 0 mm 3 mps 760 mmHg 42%
    10:00 +20°C° 0 mm 3 mps 760 mmHg 36%
    11:00 +22°C° 0 mm 3 mps 760 mmHg 30%
    12:00 +22°C° 0 mm 3 mps 759 mmHg 28%
    13:00 +24°C° 0 mm 3 mps 759 mmHg 27%
    14:00 +24°C° 0 mm 3 mps 758 mmHg 25%
    15:00 +22°C° 0 mm 3 mps 758 mmHg 28%
    16:00 +21°C° 0 mm 3 mps 758 mmHg 30%
    17:00 +21°C° 0 mm 4 mps 758 mmHg 32%
    18:00 +20°C° 0 mm 4 mps 758 mmHg 34%
    19:00 +20°C° 0 mm 4 mps 759 mmHg 36%
    20:00 +19°C° 0 mm 4 mps 759 mmHg 37%
    21:00 +19°C° 0 mm 4 mps 759 mmHg 37%
    22:00 +19°C° 0 mm 3 mps 759 mmHg 37%
    23:00 +18°C° 0 mm 3 mps 759 mmHg 37%
    Show more